Simultaneous Nadir Overpasses (SNOs) Predictions

Prediction of SNOs between AQUA and GOES-15 Satellite Orbit:

Table of predicted SNOs for the next 14.0 days since TLE Epoch: 12/2/2011
Index Date Time (AQUA) AQUA Lat,Lon GOES-15 Lat,Lon Distance(km) Time Diff (sec)
1 12/04/2011 10:06:44 0.01,-127.94 -0.02,-127.69 27.79 80
2 12/06/2011 09:54:36 -0.89,-125.04 -0.01,-129.28 482.33 80
3 12/06/2011 22:16:02 -0.07,-130.26 0.02,-129.91 39.96 80
4 12/08/2011 22:03:54 0.89,-127.36 0.01,-131.50 470.62 80
5 12/09/2011 10:25:10 0.14,-132.53 -0.03,-131.70 93.38 80
6 12/11/2011 10:13:01 -0.82,-129.63 -0.01,-133.28 415.73 80
7 12/11/2011 22:34:26 -0.17,-134.84 0.03,-133.89 108.18 80
8 12/13/2011 22:22:16 0.78,-131.93 0.02,-135.46 401.49 80
9 12/14/2011 10:43:30 0.28,-137.09 -0.03,-135.68 161.10 80
10 12/16/2011 10:31:19 -0.66,-134.18 -0.03,-137.24 347.24 80




NCC Satellite Simultaneous Nadir Overpasses (SNOs) Prediction Service
